Location: Aat
(50.6296°N, 3.7780°E)
Time: 20:39:51
(UTC+00:00)

Daily predictions for brighter satellites

Satellite Brightness Start Highest point End
(mag) Time Altitude Azimuth Time Altitude Azimuth Time Altitude Azimuth
Cosmos 2369 Rocket 3.2 18:08:44 10° NNW 18:13:46 31° NE 18:18:47 10° ESE
Helios 1B rocket 2.3 18:12:16 10° SSE 18:16:07 90° N 18:19:58 10° NNW
CZ-4 R/B 2.3 18:13:06 10° ESE 18:16:25 27° ENE 18:19:47 10° N
Cosmos 1814 Rocket 4.5 18:11:39 10° SSW 18:16:54 68° WNW 18:22:07 10° NNE
Cosmos 1464 Rocket 4.3 18:12:37 10° SSE 18:18:38 48° E 18:24:43 10° NNE
NOSS 3-4 (A) 4.0 18:13:48 10° NW 18:20:15 56° NE 18:27:43 10° ESE
NOSS 3-4 (C) 4.0 18:13:53 10° NW 18:20:21 55° NE 18:27:49 10° ESE
Cosmos 1980 3.7 18:14:50 10° SSW 18:20:29 75° ESE 18:26:11 10° NNE
CZ-4B R/B 3.7 18:22:29 10° SE 18:26:09 33° ENE 18:29:57 10° N
Meteor 1-13 Rocket 4.3 18:20:43 10° N 18:26:31 64° ENE 18:32:09 10° SSE
Cosmos 1805 Rocket 4.5 18:25:42 10° SE 18:29:21 27° E 18:33:01 10° NNE
Landsat 7 4.3 18:25:32 10° S 18:30:12 65° WSW 18:34:54 10° NNW
NOSS 0 Rocket 4.2 18:26:36 10° SW 18:32:51 76° WNW 18:39:08 10° NNE
Cosmos 1975 4.2 18:32:33 10° SE 18:35:16 19° E 18:38:00 10° NE
Resurs 01 Rocket 2.4 18:31:36 10° SE 18:35:32 33° ENE 18:39:30 10° N
Cosmos 1707 3.4 18:35:06 10° NNW 18:38:36 54° W 18:42:03 10° S
Okean-O 4.4 18:39:41 11° E 18:41:53 16° ENE 18:44:29 10° NNE
Cosmos 2034 Rocket 4.1 18:39:52 10° SSE 18:45:47 50° E 18:51:43 10° NNE
USA 306 2.9 18:42:52 10° WNW 18:45:57 47° N 18:48:52 14° E
ISS -3.7 18:43:05 10° W 18:46:27 74° N 18:49:13 15° E
Meteor PRIRODA 3.2 18:44:15 10° SSE 18:47:30 70° ENE 18:50:46 10° N
Cosmos 2208 Rocket 4.0 18:46:06 10° SSW 18:51:22 76° ESE 18:56:46 10° NNE
GENESIS II 4.3 18:49:51 10° SW 18:53:20 66° NW 18:56:51 10° NE
Cosmos 1733 3.1 18:51:09 10° SSW 18:54:33 74° W 18:57:59 10° N
ACS3 Solar Sail 2.4 18:49:00 10° SE 18:54:55 41° ENE 19:00:51 10° N
SAR-Lupe-2 3.9 18:51:31 10° S 18:55:05 69° WSW 18:58:41 10° NNW
SL-16 R/B 2.5 18:50:02 10° S 18:55:21 43° ESE 19:00:42 10° NE
Cosmos 1315 Rocket 2.9 18:52:37 10° NNW 18:56:36 79° W 19:00:34 10° S
Cosmos 1805 3.2 18:54:42 10° S 18:58:14 50° E 19:01:48 10° NNE
Cosmos 1536 3.4 18:58:07 10° SSW 19:01:53 57° WNW 19:05:43 10° N
Resurs 1-3 4.1 18:59:04 10° S 19:03:22 63° WSW 19:07:41 10° NNW
SPOT 1/Viking Rocket 3.8 19:01:48 10° S 19:06:57 70° WSW 19:12:06 10° NNW
Okean 3 4.4 19:03:25 10° N 19:07:02 28° ENE 19:08:32 22° ESE
Cosmos 1428 Rocket 4.4 19:01:31 10° N 19:07:39 80° E 19:13:47 10° SSE
ATLAS CENTAUR R/B 2.7 19:04:49 10° WSW 19:08:10 34° NW 19:11:43 10° NNE
Cosmos 1943 4.4 19:07:43 19° ESE 19:08:36 20° E 19:12:34 10° NE
Meteor 1-11 Rocket 3.7 19:03:03 10° SSW 19:08:38 86° WNW 19:14:11 10° NNE
SL-14 R/B 3.1 19:05:08 10° N 19:08:58 71° ENE 19:12:47 10° SSE
ATLAS 2AS CENTAUR R/B 4.2 19:04:08 10° NW 19:10:04 28° N 19:15:50 10° ENE
Meteor 2-9 Rocket 4.1 19:06:39 10° S 19:12:03 89° ESE 19:17:39 10° NNE
Meteor 1-21 4.3 19:08:15 10° N 19:14:01 65° ENE 19:19:45 10° SSE
ADEOS 4.1 19:09:05 10° S 19:14:14 61° WSW 19:19:26 10° NNW
CSL-04 Rocket 3.6 19:11:58 11° SSE 19:17:02 66° ENE 19:22:17 10° N
Cosmos 2263 4.4 19:12:24 10° NNW 19:18:02 56° NE 19:21:31 23° SE
CZ-4B R/B 3.1 19:13:30 10° SSE 19:18:53 75° ENE 19:24:12 10° NNW
Cosmos 1500 Rocket 3.6 19:19:24 10° SSW 19:23:44 79° W 19:28:05 10° N
USA 186 1.9 19:24:40 18° S 19:26:57 75° WSW 19:30:11 10° NNW
SJ-6B 4.3 19:26:43 10° SSW 19:30:01 34° W 19:33:20 10° NNW
Cosmos 773 Rocket 4.0 19:26:44 10° SSW 19:32:01 87° WNW 19:37:21 10° NNE
Cosmos 1743 Rocket 3.5 19:29:23 10° SSW 19:33:42 83° W 19:38:07 10° N
Cosmos 2237 Rocket 3.6 19:28:39 10° WSW 19:33:56 41° NW 19:39:15 10° NNE
SL-08 R/B 4.1 19:31:18 10° N 19:36:07 56° WNW 19:40:54 10° SW
Cosmos 2026 Rocket 4.0 19:30:25 10° N 19:36:39 86° W 19:42:45 10° S
Helios 1A 3.4 19:33:15 10° N 19:37:16 60° WNW 19:41:17 10° SSW
NOSS 3-3 (C) 4.2 19:31:48 10° WSW 19:37:20 66° NW 19:43:58 10° NE
USA 267 3.9 19:31:14 11° ENE 19:37:24 53° N 19:43:45 10° W
SeaSat 1 3.7 19:34:35 10° NNE 19:39:14 43° NW 19:43:51 10° WSW
Cosmos 724 4.2 19:34:10 10° SW 19:39:58 89° SE 19:45:49 10° NE
Cosmos 1766 3.4 19:41:42 46° ENE 19:41:42 46° ENE 19:44:57 10° NNE
Tiangong 0.4 19:40:34 10° SSW 19:41:06 12° SSW 19:41:06 12° SSW
Sich 1 3.7 19:38:24 10° SSW 19:42:38 55° WNW 19:46:55 10° N
Okean O Rocket 1.5 19:41:02 30° SSE 19:43:11 78° ENE 19:47:36 10° NNW
CARTOSAT-1 4.1 19:40:01 11° S 19:43:57 58° W 19:48:10 10° NNW
USA 32 4.4 19:38:54 10° N 19:44:07 67° W 19:49:19 10° S
GEOS 3 Rocket 3.5 19:41:58 32° SE 19:44:30 88° NE 19:49:43 10° NW
Cosmos 1092 Rocket 4.2 19:40:54 10° NNW 19:47:15 76° W 19:53:34 10° S
NOSS 3-3 (A) 4.5 19:42:00 10° WSW 19:47:29 57° NW 19:54:05 10° NE
CZ-4 R/B 3.0 19:47:20 10° SSW 19:50:50 32° W 19:54:25 10° NNW
Cosmos 1656 Rocket 4.3 19:45:54 10° NW 19:51:22 52° WSW 19:55:32 17° S
BREEZE-M R/B 4.5 19:46:33 10° W 19:51:27 66° SSW 20:00:21 26° ESE
Cosmos 2297 4.2 19:47:55 10° NW 19:53:27 57° WSW 19:57:17 20° S
SPOT 5 2.7 19:54:01 50° ESE 19:54:45 58° ENE 19:59:01 10° N
Cosmos 1607 4.2 19:50:27 10° SW 19:56:55 73° NW 20:03:22 10° NE
Cosmos 2369 Rocket 2.5 19:52:33 10° NW 19:58:14 64° WSW 20:01:28 26° S
ARIANE 6 FM1 Upper Stage 2.8 19:54:21 10° SSW 19:58:11 56° SSE 19:58:11 56° SSE
Aureole 3 Rocket 4.1 19:53:31 10° SSW 19:58:44 49° WNW 20:02:36 10° N
Okean 2 3.3 19:55:13 10° N 19:59:08 60° ENE 19:59:08 60° ENE
Cosmos 2344 4.4 19:52:28 10° NW 19:59:45 44° NNE 20:05:08 23° E
Terra 2.4 20:00:58 37° ENE 20:01:01 37° ENE 20:05:22 10° N
BREEZE-M DEB (TANK) 3.9 19:40:46 10° W 20:01:08 81° S 20:03:29 39° ESE
Aureole 3 4.0 19:58:33 10° N 20:03:04 57° ENE 20:03:54 50° ESE
CRYOSAT 2 4.2 19:58:23 10° N 20:03:19 79° E 20:05:19 36° S
Cosmos 1634 Rocket 4.1 20:00:22 10° SSW 20:06:42 82° W 20:13:05 10° N
Cosmos 1441 Rocket 3.8 20:03:44 13° SSW 20:06:46 52° WNW 20:10:15 10° N
Okean 1-7 3.0 20:03:18 10° N 20:07:26 60° ENE 20:07:26 60° ENE
Cosmos 2228 Rocket 3.5 20:03:28 10° NNW 20:08:00 63° W 20:10:04 31° SSW
Cosmos 1633 Rocket 2.9 20:09:43 69° SSE 20:10:09 78° E 20:14:35 10° NNE
Cosmos 1975 3.9 20:06:59 10° SSW 20:10:41 43° WNW 20:14:27 10° N
NOSS 3-4 (A) 4.5 20:04:40 10° NW 20:11:16 51° WSW 20:15:59 23° S
NOSS 3-4 (C) 4.5 20:04:46 10° NW 20:11:22 51° WSW 20:16:03 23° S
Resurs 01 Rocket 3.2 20:07:58 10° SSW 20:11:57 33° W 20:15:58 10° NNW
Cosmos 2084 Rocket 3.3 20:08:02 10° SW 20:12:21 85° NW 20:13:12 56° NE
MetOp-B 4.0 20:11:40 49° SSE 20:13:08 79° ENE 20:18:31 10° NNW
Cosmos 1538 Rocket 4.1 20:13:37 56° ESE 20:13:37 56° ESE 20:18:49 10° NNE
RESURS DK-1 4.3 20:12:23 10° N 20:14:56 19° NNE 20:14:56 19° NNE
Cosmos 1980 Rocket 4.5 20:14:11 10° N 20:16:29 12° NNE 20:18:46 10° NE
Okean-O 2.6 20:17:08 67° S 20:17:41 82° WSW 20:22:07 10° NNW
USA 306 3.1 20:15:10 10° WNW 20:17:50 52° WNW 20:17:50 52° WNW
Cosmos 1862 Rocket 4.1 20:15:59 10° NNW 20:20:21 56° W 20:21:39 40° SSW
MOS 1 Rocket 3.5 20:20:11 59° SSE 20:21:14 83° ENE 20:26:40 10° NNW
SL-08 ROCKET BODY 4.4 20:16:02 10° N 20:22:10 66° ENE 20:23:16 55° SE
ISS -2.3 20:19:58 10° WNW 20:22:09 37° W 20:22:09 37° W
Cosmos 1707 Rocket 4.5 20:19:11 10° NNW 20:23:26 46° W 20:25:01 31° SW
Spot 2 Rocket 3.8 20:23:41 50° ENE 20:23:41 50° ENE 20:28:23 10° N
ERS-1 Rocket 2.8 20:26:14 71° E 20:26:27 72° ENE 20:31:29 10° N
IRS-1A Rocket 4.2 20:27:24 60° SSE 20:28:31 82° ENE 20:34:09 10° NNW
Cosmos 1666 Rocket 4.0 20:28:15 36° SW 20:29:47 57° WNW 20:34:04 10° N
Cosmos 1470 Rocket 4.0 20:33:03 53° NNE 20:33:03 53° NNE 20:36:32 10° NNE
Cosmos 1703 Rocket 4.0 20:28:51 10° N 20:32:25 53° NNE 20:32:25 53° NNE
Cosmos 2142 Rocket 4.4 20:32:14 33° S 20:35:14 86° W 20:41:27 10° N
Cosmos 2279 Rocket 4.1 20:33:08 16° SSW 20:38:13 72° WNW 20:44:26 10° N
ACS3 Solar Sail 2.8 20:33:51 15° SSW 20:38:54 45° W 20:45:02 10° NNW
SL-16 R/B 3.5 20:34:11 10° WSW 20:39:32 41° NW 20:44:53 10° NNE
SPOT 3 Rocket 3.8 20:41:30 54° NE 20:41:30 54° NE 20:46:00 10° N
Meteor 2-5 Rocket 4.3 20:39:17 10° N 20:44:37 47° ENE 20:44:37 47° ENE
ATLAS CENTAUR R/B 4.2 20:44:50 10° NW 20:46:37 13° NNW 20:48:26 10° NNE
Cosmos 1624 Rocket 4.5 20:44:53 10° NNW 20:49:24 50° NNE 20:49:24 50° NNE
Cosmos 1943 3.2 20:49:01 30° SW 20:51:58 80° WNW 20:57:40 10° NNE
Ariane Rocket 3.2 20:57:45 63° N 20:57:45 63° N 21:02:03 10° NNW
Cosmos 1697 Rocket 4.1 20:53:45 10° NNW 20:58:31 27° NE 20:58:31 27° NE
ATLAS 2AS CENTAUR R/B 3.3 20:56:04 10° NW 21:02:41 45° NNE 21:03:49 41° ENE
Cosmos 489 Rocket 4.3 20:56:25 10° NNW 21:02:50 85° ENE 21:02:58 84° E
Cosmos 1655 Rocket 3.9 20:56:53 10° N 21:03:19 84° ENE 21:03:30 83° ESE
IRS-1C Rocket 4.4 21:04:12 59° WSW 21:04:14 59° WSW 21:09:28 10° NNW
USA 267 3.6 21:18:34 49° NE 21:19:55 58° NNE 21:26:20 10° WNW
Okean O Rocket 4.2 21:18:23 12° WSW 21:19:58 14° W 21:22:20 10° NW
Cosmos 2056 Rocket 4.1 21:16:01 10° NNW 21:20:08 55° NNW 21:20:08 55° NNW
Terra 3.5 21:39:40 29° WNW 21:39:40 29° WNW 21:42:54 10° NNW
Cosmos 1980 Rocket 3.7 21:57:09 10° NNW 22:00:49 30° NNE 22:00:49 30° NNE
Cosmos 2344 3.9 22:06:47 10° NW 22:14:56 77° SW 22:15:07 77° SW
Cosmos 1697 Rocket 4.3 22:37:25 10° NNW 22:40:13 30° NW 22:40:13 30° NW
Cosmos 2360 Rocket 4.4 22:46:25 10° N 22:50:01 17° NNE 22:50:34 17° NE
ATLAS 2AS CENTAUR R/B 3.7 22:47:10 10° NW 22:51:13 37° WNW 22:51:13 37° WNW
USA 267 4.4 23:05:55 34° WNW 23:05:55 34° WNW 23:09:25 10° WNW
Cosmos 2322 Rocket 4.2 23:03:29 10° NNW 23:07:17 22° NNE 23:07:17 22° NNE
Cosmos 2082 Rocket 4.5 23:26:46 17° NE 23:26:46 17° NE 23:28:04 10° NE
SL-16 R/B 4.0 23:31:59 10° NNW 23:34:52 28° N 23:34:52 28° N
CZ-3B R/B 4.2 23:21:59 10° WNW 23:36:26 56° WNW 23:36:26 56° WNW
Cosmos 1980 Rocket 4.4 23:41:05 10° NW 23:42:32 18° NW 23:42:32 18° NW
Cosmos 2333 Rocket 4.0 23:48:01 10° NNW 23:51:31 28° NNE 23:51:31 28° NNE
